User: anonymous   Login
Location: Unspecified
(0.0000°N, 0.0000°E)
Time: 20:53:08
(UTC+02:00)
Language:

Meteor 2-8 Rocket - Orbit

View from above orbital plane
View from above orbital plane
View from above satellite
View from above satellite

Ground track
Ground track

The orbit data is extracted from the following two-line orbital elements,

1 13114U 82025B   17173.64314494 +.00000041 +00000-0 +23326-4 0  9996
2 13114 082.5386 198.4227 0015588 131.4581 006.4643 13.84660696780880
Epoch (UTC): 22 June 2017 15:26:07
Eccentricity: 0.0015588
inclination: 82.5386°
perigee height: 936 km
apogee height: 959 km
right ascension of ascending node: 198.4227°
argument of perigee: 131.4581°
revolutions per day: 13.84660696
mean anomaly at epoch: 6.4643°
orbit number at epoch: 78088

The dashed part of the orbit path shows where the satellite is in the earth's shadow,  

DLR